www.pogodaiklimat.ru

Погода и климат >> Архив погоды >> Иран >> Kish Island


ПОГОДА в Kish Island

  • Прогноз погоды в Kish Island
  • Монитор погоды в Kish Island
  • Климат города

АРХИВ ПОГОДЫ в Kish Island

Время (UTC), дата Ветер
(напр.,м/с)
 
Видим.   Явления Облачность Т
(С)
Тd
(С)
f
(%)
Тe
(С)
Тes
(С)
Комфортность P
(гПа)
Po
(гПа)
Тmin
(С)
Tmax
(С)
R
(мм)
R24
(мм)
S
(см)
21 10.10 Ю 2 5000 м дымка ясно +29.8 +27.6 88 +48 +48 опасность
перегрева
1005.7 1002.3
00 11.10 СВ 2 4000 м дымка ясно +28.4 +26.7 91 +44 +44 опасность
перегрева
1005.0 1001.6
03 11.10 В 4 3500 м дымка ясно +28.8 +27.4 92 +46 +46 опасность
перегрева
1006.5 1003.1 +27.4
06 11.10 В 5 5000 м мгла ясно +32.6 +26.8 72 +50 +55 опасность
перегрева
1008.0 1004.7
09 11.10 ЮВ 4 6000 м мгла ясно +34.8 +24.7 56 +48 +57 опасность
перегрева
1006.8 1003.5
12 11.10 ЮЗ 3 6000 м мгла ясно +34.8 +27.5 66 +54 +58 опасность
перегрева
1006.1 1002.7
15 11.10 З 2 5000 м мгла ясно +31.4 +27.3 79 +50 +50 опасность
перегрева
1006.7 1003.4 +36.0
18 11.10 С 2 5000 м дымка ясно +29.0 +26.9 88 +45 +45 опасность
перегрева
1007.3 1003.9
21 11.10 штиль 0 5000 м дымка ясно +28.2 +26.2 89 +43 +43 опасность
перегрева
1006.6 1003.3
00 12.10 СЗ 2 3000 м дымка ясно +28.4 +26.2 88 +43 +43 опасность
перегрева
1006.4 1003.0
03 12.10 СЗ 3 5000 м дымка ясно +28.0 +25.8 88 +42 +42 опасность
перегрева
1007.2 1003.8 +27.4
06 12.10 ЮВ 4 7000 м мгла ясно +35.0 +27.6 66 +55 +61 опасность
перегрева
1009.0 1005.6
09 12.10 ЮЗ 3 6000 м мгла ясно +34.6 +27.8 68 +55 +67 опасность
перегрева
1008.0 1004.7
12 12.10 ЮЗ 2 7000 м мгла ясно +35.8 +23.3 49 +46 +51 опасность
перегрева
1007.0 1003.6
15 12.10 СЗ 3 6000 м мгла ясно +32.4 +23.9 61 +44 +44 опасность
перегрева
1007.1 1003.7 +36.2
18 12.10 СЗ 4 6000 м мгла ясно +31.0 +23.2 63 +41 +41 опасность
перегрева
1007.7 1004.3
21 12.10 СЗ 4 6000 м мгла ясно +30.2 +23.9 69 +42 +42 опасность
перегрева
1006.8 1003.5
00 13.10 С 2 8000 м мгла ясно +28.4 +23.8 76 +39 +39 очень
душно
1006.1 1002.8
03 13.10 штиль 0 10 км ясно +27.2 +24.3 84 +38 +38 очень
душно
1006.6 1003.2 +27.2
06 13.10 Ю 4 10 км ясно +34.4 +23.6 53 +45 +51 опасность
перегрева
1008.6 1005.2
09 13.10 ЮЗ 3 8000 м мгла ясно +35.4 +20.7 42 +42 +54 опасность
перегрева
1007.4 1004.0
12 13.10 Ю 3 8000 м мгла ясно +35.0 +24.3 54 +47 +51 опасность
перегрева
1005.9 1002.6
15 13.10 ЮЗ 2 8000 м мгла ясно +31.0 +23.7 65 +42 +42 опасность
перегрева
1006.1 1002.8 +36.2
18 13.10 СЗ 2 7000 м мгла ясно +28.8 +23.0 71 +39 +39 очень
душно
1007.1 1003.8
21 13.10 СЗ 2 6000 м мгла ясно +27.6 +23.2 77 +37 +37 очень
душно
1006.1 1002.8
00 14.10 Ю 2 6000 м дымка ясно +26.4 +22.9 81 +35 +35 очень
душно
1005.9 1002.6
03 14.10 ЮВ 2 6000 м дымка ясно +26.8 +23.0 80 +36 +36 очень
душно
1007.5 1004.1 +26.2
06 14.10 ЮВ 3 8000 м мгла ясно +33.8 +23.7 56 +45 +53 опасность
перегрева
1009.0 1005.7
09 14.10 Ю 3 8000 м мгла ясно +35.4 +21.6 45 +43 +55 опасность
перегрева
1007.2 1003.8
12 14.10 ЮЗ 3 8000 м мгла ясно +35.4 +18.4 37 +40 +43 очень
душно
1005.6 1002.3
15 14.10 СЗ 2 7000 м мгла ясно +30.8 +19.6 51 +37 +37 очень
душно
1005.9 1002.5 +36.2
18 14.10 З 2 7000 м мгла ясно +28.6 +22.8 71 +38 +38 очень
душно
1006.6 1003.2
21 14.10 З 3 7000 м мгла ясно +27.6 +22.6 74 +36 +36 очень
душно
1006.2 1002.9
00 15.10 З 2 8000 м мгла ясно +27.6 +22.0 72 +36 +36 очень
душно
1006.0 1002.7
03 15.10 штиль 0 8000 м дымка ясно +26.2 +22.7 81 +35 +35 очень
душно
1007.8 1004.4 +26.2
06 15.10 В 3 8000 м мгла ясно +33.2 +22.8 55 +43 +51 опасность
перегрева
1009.5 1006.1
09 15.10 Ю 4 8000 м мгла ясно +34.2 +19.9 43 +40 +49 очень
душно
1008.4 1005.0
12 15.10 ЮЗ 3 7000 м мгла ясно +34.2 +23.2 53 +45 +48 опасность
перегрева
1006.9 1003.6
15 15.10 З 2 7000 м мгла ясно +29.4 +21.9 64 +38 +38 очень
душно
1007.5 1004.1 +35.4
18 15.10 З 2 7000 м мгла ясно +28.0 +22.3 71 +37 +37 очень
душно
1008.6 1005.2
21 15.10 СЗ 2 6000 м мгла ясно +27.4 +22.4 74 +36 +36 очень
душно
1007.9 1004.5
00 16.10 СЗ 2 6000 м мгла ясно +26.6 +22.2 77 +35 +35 очень
душно
1007.3 1003.9
03 16.10 штиль 0 7000 м дымка ясно +26.0 +23.1 84 +35 +35 очень
душно
1008.6 1005.3 +25.6
06 16.10 В 2 6000 м мгла ясно +33.2 +25.7 65 +48 +57 опасность
перегрева
1010.2 1006.8
09 16.10 ЮЗ 4 5000 м мгла ясно +34.0 +24.3 57 +46 +55 опасность
перегрева
1008.5 1005.1
12 16.10 З 3 5000 м мгла ясно +33.2 +20.8 48 +40 +44 очень
душно
1007.3 1003.9
15 16.10 З 2 6000 м мгла ясно +30.4 +22.6 63 +40 +40 очень
душно
1007.6 1004.2 +34.6
18 16.10 З 2 6000 м мгла ясно +28.2 +22.7 72 +37 +37 очень
душно
1008.1 1004.7
21 16.10 З 2 5000 м мгла ясно +27.4 +23.3 78 +37 +37 очень
душно
1007.3 1004.0
00 17.10 штиль 0 5000 м дымка ясно +26.8 +23.6 83 +37 +37 очень
душно
1007.0 1003.7
03 17.10 СВ 2 5000 м дымка ясно +26.0 +23.1 84 +35 +35 очень
душно
1008.0 1004.6 +25.8
06 17.10 Ю 2 5000 м мгла ясно +32.2 +25.2 67 +46 +55 опасность
перегрева
1009.9 1006.5
09 17.10 ЮЗ 3 5000 м мгла ясно +33.2 +25.1 63 +47 +58 опасность
перегрева
1008.4 1005.1
12 17.10 З 3 6000 м мгла ясно +33.8 +26.1 64 +50 +53 опасность
перегрева
1006.6 1003.3
15 17.10 З 2 7000 м мгла ясно +30.4 +24.8 72 +43 +43 опасность
перегрева
1007.0 1003.6 +34.0

 

Местоположение метеостанции Kish Island (Иран): широта 26.50 долгота 53.98 высота над уровнем моря 30 м.

В архиве по умолчанию представлена погода в Kish Island за последнюю неделю. Архивные данные за месяц целиком и за предыдущие месяцы, начиная с января 2011 года, Вы можете получить, выбрав интересующий диапазон дат из раскрывающегося списка и нажав кнопку "Ввод!".

Внимание! Время в таблицах - всемирное. Для получения местного времени необходимо прибавить поправку, которая в Kish Island равна 3.5 ч.

Смотрите также архив погоды в соседних городах и на ближайших метеорологических станциях:

Погода в Bandar Lengeh (Иран) (85 км)
Погода в Sirri Island (Иран) (87 км)
Погода в Abu Musa Island (Иран) (113 км)
Погода в Dubai (ОАЭ) (194 км)
Погода в Sharjah (ОАЭ) (202 км)
Погода в Dubai Al Maktoum Int Airport (ОАЭ) (214 км)
Погода в Ras Al Khaimah Int Airport (ОАЭ) (218 км)
Погода в Khasab Airport (Оман) (227 км)
Погода в Khasab (Оман) (228 км)
Погода в Abu Dhabi Bateen Airport (ОАЭ) (235 км)

Пояснения к столбцам:

Ветер - указаны скорость ветра в м/с - средняя за 10 мин, порывы в срок и между сроками (в фигурных скобках) и направление, откуда дует ветер: С - северный, СВ - северо-восточный, В - восточный, ЮВ - юго-восточный, Ю - южный, ЮЗ - юго-западный, З - западный, СЗ - северо-западный.
Видимость - горизонтальная дальность видимости в метрах или километрах. При видимости от 1 до 10 км при отсутствии осадков обычно наблюдается дымка, при ухудшении видимости до 1 км и менее - туман. В сухую погоду видимость может ухудшаться дымом, пылью или мглою.
Явления - указаны атмосферные явления, наблюдавшиеся в срок или в последний час перед сроком; фигурными скобками обозначены явления, наблюдавшиеся между сроками (за 1-3 часа до срока); квадратными скобками обозначены град или гололедные отложения с указанием их диаметра в мм.
Облачность - указаны через наклонную черту общая и нижняя облачность в баллах и высота нижней границы облаков в метрах; квадратными скобками обозначены формы облаков: Ci - перистые, Cs - перисто-слоистые, Cc - перисто-кучевые, Ac - высококучевые, As - высокослоистые, Sc - слоисто-кучевые, Ns - слоисто-дождевые, Cu - кучевые, Cb - кучево-дождевые. Подробнее классификацию облаков см. в Атласе облаков (PDF).
T - Температура воздуха - температура, измеренная на высоте 2 м над землей.
Td - Температура точки росы - температура, при понижении до которой содержащийся в воздухе водяной пар достигнет насыщения.
f - Относительная влажность воздуха - влажноcть воздуха, измеренная на высоте 2 м над землей.
Te - Эффективная температура - температура, которую ощущает одетый по сезону человек в тени. Характеристика душности погоды. При расчете учитывается влияние влажности воздуха и скорости ветра на теплоощущения человека.
Tes - Эффективная температура на солнце - температура, которую ощущает человек, с поправкой на солнечный нагрев. Характеристика знойности погоды. Зависит от высоты солнца над горизонтом, облачности и скорости ветра. Ночью, в пасмурную погоду, а также при ветре 12 м/с и более поправка равна нулю.
P - Атмосферное давление - приведенное к уровню моря атмосферное давление.
Po - Атмосферное давление - измеренное на уровне метеостанции атмосферное давление.
Tmin - Минимальная температура - минимум температуры воздуха на высоте 2 м над землей.
Tmax - Максимальная температура - максимум температуры воздуха на высоте 2 м над землей.
R - Количество осадков - Количество выпавших осадков за период времени, мм. При наведении курсора мыши на число - период времени, за который выпало указанное количество осадков.
R24 - Количество осадков - Количество выпавших осадков за 24 часа, мм.
S - Снежный покров - Высота снежного покрова, см. При наведении курсора мыши на число - состояние снежного покрова и степень покрытия местности в баллах.